Preview of NWS' New Version of Forecast
This preview is not operational and should not be used for support decisions.

Regional Weather Roundup (RWR)

Issued by National Weather Service (NWS)

                            
000
ASUS43 KMKX 232200
RWRWI 

WISCONSIN REGIONAL WEATHER ROUNDUP
NATIONAL WEATHER SERVICE MILWAUKEE/SULLIVAN WI
400 PM CST SAT FEB 23 2019

NOTE: "FAIR" INDICATES FEW OR NO CLOUDS BELOW 12,000 FEET WITH NO
SIGNIFICANT WEATHER AND/OR OBSTRUCTIONS TO VISIBILITY.

WIZ001-002-006>008-014>016-023>028-232300-
NORTHWEST WISCONSIN
  
CITY           SKY/WX    TMP DP  RH WIND       PRES   REMARKS
SUPERIOR ARPT  CLOUDY    30  29  95 NE9       29.83F WCI  22          
ASHLAND        CLOUDY    30  29  96 N10       29.83F FOG     WCI  21  
HAYWARD        CLOUDY    32  28  85 NE3       29.78F                  
SIREN          CLOUDY    32  28  86 CALM      29.79F FOG              
CUMBERLAND     CLOUDY    30  27  86 E5        29.77F FOG     WCI  25  
RICE LAKE      CLOUDY    32  22  67 NE3       29.79F HAZE             
CHETEK         CLOUDY    31  28  88 CALM      29.77F FOG              
LADYSMITH      CLOUDY    32  29  88 NE3       29.79F FOG              
EAU CLAIRE     NOT AVBL                                               
MENOMONIE      CLOUDY    28  28  99 N6        29.77F FOG     WCI  22  
NEW RICHMOND   CLOUDY    31  28  87 NE7       29.76F FOG     WCI  24  
OSCEOLA        CLOUDY    32  30  94 NE5       29.80F WCI  27          
$$
 
WIZ003>005-009-010-017-018-232300-
NORTH CENTRAL WISCONSIN
  
CITY           SKY/WX    TMP DP  RH WIND       PRES   REMARKS
MANITOWISH WTR NOT AVBL                                               
ARBOR VITAE    CLOUDY    32  30  94 SE6       29.78F FOG     WCI  26  
WOODRUFF       CLOUDY    32  30  94 SE6       29.78F FOG     WCI  26  
RHINELANDER    CLOUDY    31  27  85 E10       29.77F FOG     WCI  22  
EAGLE RIVER    CLOUDY    29  28  96 SE7       29.78F FOG     WCI  22  
LAND O LAKES   CLOUDY    30  28  94 SE5       29.81F FOG     WCI  25  
PHILLIPS       CLOUDY    30  29  97 E5        29.78S WCI  25          
TOMAHAWK       DRIZZLE   30  28  92 E3        29.78F                  
MEDFORD        MIX PCPN  30  29  95 E5        29.76S WCI  25          
MERRILL        CLOUDY    31  30  95 SE9       29.79F FOG     WCI  23  
$$
 
WIZ029-030-035-036-043>047-232300-
CENTRAL WISCONSIN
  
CITY           SKY/WX    TMP DP  RH WIND       PRES   REMARKS
WAUSAU         CLOUDY    31  26  82 E10       29.76F HAZE    WCI  22  
MOSINEE        CLOUDY    30  28  93 E10       29.78F FOG     WCI  21  
MARSHFIELD     CLOUDY    31  29  92 E9        29.74F WCI  23          
STEVENS POINT  CLOUDY    31  27  86 E12       29.79F WCI  21          
WAUPACA        CLOUDY    36  29  75 E8        29.81S WCI  29          
WAUTOMA        CLOUDY    33  29  85 E13       29.77F WCI  24          
WISC RAPIDS    CLOUDY    32  26  78 E8        29.76F HAZE    WCI  25  
CAMP DOUGLAS   CLOUDY    33  33 100 E9          N/A  FOG     WCI  25  
$$
 
WIZ011>013-019>022-031-037>040-048>050-232300-
NORTHEAST WISCONSIN
  
CITY           SKY/WX    TMP DP  RH WIND       PRES   REMARKS
ANTIGO         CLOUDY    28  27  93 E13       29.78F FOG     WCI  18  
SHAWANO        CLOUDY    37  28  71 E8        29.82F WCI  30          
OCONTO         CLOUDY    34  27  76 E8        29.86S WCI  27          
STURGEON BAY   CLOUDY    34  27  75 E7        29.84  WCI  28          
GREEN BAY      CLOUDY    37  27  67 E9        29.82F WCI  30          
MANITOWOC      CLOUDY    34  28  79 E9        29.82F WCI  27          
APPLETON       CLOUDY    34  25  69 E7        29.78F WCI  28          
CLINTONVILLE   CLOUDY    34  26  72 E7        29.81F WCI  28          
OSHKOSH        CLOUDY    33  29  85 E9        29.78F FOG     WCI  25  
$$
 
WIZ032>034-041-042-053>061-232300-
SOUTHWEST WISCONSIN
  
CITY           SKY/WX    TMP DP  RH WIND       PRES   REMARKS
LA CROSSE      CLOUDY    35  32  88 NE6       29.71F FOG     WCI  30  
SPARTA         CLOUDY    33  31  94 E9        29.75F FOG     WCI  25  
VIROQUA        CLOUDY    33  33 100 E13       29.68F VSB 3/4 WCI  24  
BOSCOBEL       FOG       35  33  92 E6        29.72F VSB 3/4 WCI  30  
PRAIRIE DU CHI CLOUDY    34  33  93 E8        29.69F FOG     WCI  28  
PLATTEVILLE    CLOUDY    33  33 100 E15       29.69F WCI  23          
$$

WIZ056-057-062-063-064-067-068-232300-
SOUTH CENTRAL WISCONSIN
  
CITY           SKY/WX    TMP DP  RH WIND       PRES   REMARKS
REEDSBURG      CLOUDY    32  32 100 E7        29.74F FOG     WCI  26  
BARABOO/DELLS  CLOUDY    32  32  99 E8        29.74F FOG     WCI  25  
LONE ROCK      FOG       34  33  96 E10       29.71F VSB 1   WCI  26  
MINERAL POINT  CLOUDY    34  34 100 E10       29.69F FOG     WCI  26  
MADISON        DRZL/FOG  33  31  92 E9        29.75F VSB 1   WCI  25  
MIDDLETON      CLOUDY    34  34  99 E6        29.75F VSB 3/4 WCI  29  
WATERTOWN      CLOUDY    32  32 100 E8        29.75F FOG     WCI  25  
MONROE         DRZL/FOG  33  32  98 MISG      29.70F VSB 1/2          
JANESVILLE     FOG       36  36 100 E10       29.73F VSB 1   WCI  28  
$$
 
WIZ051-052-058>065-066-070>072-232300-
SOUTHEAST WISCONSIN
  
CITY           SKY/WX    TMP DP  RH WIND       PRES   REMARKS
MILWAUKEE      LGT RAIN  35  32  88 E8        29.77F VSB 1/2 WCI  29  
WAUKESHA       FOG       30  30 100 E5        29.78F VSB 3/4 WCI  25  
MILWAUKEE/TIMM DRZL/FOG  34  30  86 CALM      29.79F VSB 3/4          
RACINE         CLOUDY    35  32  88 SE10      29.78F FOG     WCI  27  
KENOSHA        CLOUDY    36  35  96 SE10      29.76F FOG     WCI  28  
FOND DU LAC    MIX PCPN  33  29  85 E7        29.78F WCI  27          
SHEBOYGAN      CLOUDY    33  30  88 E8        29.80F FOG     WCI  26  
WEST BEND      LGT RAIN  32  32 100 E6        29.79F WCI  26          
JUNEAU         RAIN      32  31  97 E10       29.78F VSB 1   WCI  23  
$$

LSZ147-162-232300-
LAKE SUPERIOR
  
STATION/POSITION TIME  TEMP    WIND        PRES    WAVE
                       AIR SEA DIR/SP/G            HT/PER
                 (UTC) (F)     (DEG/KT/KT) (MB)    (FT/S)
DEVILS ISLAND    2100   30      60/ 11/ 13 1012.5F
SAXON HARBOR     2140   35     190/  3/  4 1009.8F
$$
 
LMZ867-665-643>646-232300-
LAKE MICHIGAN
  
STATION/POSITION TIME  TEMP    WIND        PRES    WAVE
                       AIR SEA DIR/SP/G            HT/PER
                 (UTC) (F)     (DEG/KT/KT) (MB)    (FT/S)
NORTHPORT PIER   2140   33      90/  8/ 12 1011.5F
KEWAUNEE LAKESHO 2124   33      70/  5/  6 1010.0
SHEBOYGAN LAKESH 2100   34     130/  9/  9 1010.8F
PORT WASHINGTON  2140   35     100/  6/  9 1010.5F
MILWAUKEE LAKESH 2130   33        CALM       N/A
KENOSHA   LAKESH 2100   35     130/ 16/ 19 1008.8
$$

TC  - TEMPERATURE IN CELSIUS
VSB - VISIBILITY IN STATUTE MILES
WCI - WIND CHILL INDEX
HX  - HEAT INDEX